Weather Roundup
Issued by NWS Chicago, IL

Home | Current Version | Previous Version | Graphics & Text | Print | Product List | Glossary On
Versions: 1 2 3 4 5 6 7 8 9 10 11 12 13 14 15 16 17 18 19 20 21 22 23 24 25 26 27 28 29 30 31 32 33 34 35 36 37 38 39 40 41 42 43 44 45 46 47 48 49 50
000
NZUS59 KLOT 041508
HRRLOT

CHICAGO AREA WEATHER ROUNDUP
NATIONAL WEATHER SERVICE CHICAGO/ROMEOVILLE IL
1000 AM CDT WED MAY 04 2016

NOTE: "FAIR" INDICATES FEW OR NO CLOUDS BELOW 12,000 FEET WITH NO
SIGNIFICANT WEATHER AND/OR OBSTRUCTIONS TO VISIBILITY.

* THESE STATIONS ARE NOT UNDER NWS QUALITY CONTROL. THEY ALSO MAY NOT
  REPORT WEATHER SUCH AS PRECIPITATION OR FOG.

ILZ005-006-012>014-019>023-041600-
NORTHEAST ILLINOIS

CITY           SKY/WX    TMP DP  RH WIND       PRES   REMARKS
OHARE          PTSUNNY   50  38  63 N18G24    29.74R
MIDWAY         CLOUDY    49  36  61 N18       29.75R
AURORA         MOSUNNY   49  41  74 NW23G29   29.77R
LANSING*       CLOUDY    47  38  71 N20G28    29.75R
JOLIET*        CLOUDY    54  41  62 N10G18    29.75R
WAUKEGAN       CLOUDY    47  37  68 N13       29.75R
DUPAGE AIRPORT MOSUNNY   52  39  61 N18G26    29.74R
WHEELING       CLOUDY    47  38  71 N16G25    29.76R
KANKAKEE*      CLOUDY    52  42  69 N10       29.75S
MORRIS*        PTSUNNY   52  42  70 NW14G20   29.75R
LEWIS AIRPORT* CLOUDY    51  39  61 N17G24    29.74S
$$

WIZ051-052-058>065-066-070>072-041600-
SOUTHEAST WISCONSIN

CITY           SKY/WX    TMP DP  RH WIND       PRES   REMARKS
MILWAUKEE      PTSUNNY   47  35  63 N17G23    29.76S
KENOSHA*       PTSUNNY   47  37  68 NW14G20   29.76R
RACINE*        CLOUDY    47  35  63 N17       29.77R
BURLINGTON     CLOUDY    45  36  70 N15       29.77S
WAUKESHA       CLOUDY    45  34  65 NW17G31   29.78S
WEST BEND      CLOUDY    43  34  70 N16       29.77S
$$

INZ001>003-010>013-019-020-041600-
NORTHWEST INDIANA

CITY           SKY/WX    TMP DP  RH WIND       PRES   REMARKS
GARY*          PTSUNNY   48  45  87 N25G40    29.75R
MICHIGAN CITY* NOT AVBL
RENSSELAER*    NOT AVBL
VALPARAISO     CLOUDY    44  38  79 N18G30    29.72S
$$

LMZ740>746-041600-
SOUTHERN LAKE MICHIGAN

STATION/POSITION TIME  SKY/WX   TEMP WIND        PRES    VSBY
                                AIR  DIR/SP/G
                 (UTC)          (F)  (DEG/KT/KT) (MB)    (MI)
HARRISON CRIB    1400            45  360/ 24/ 29   N/A
BURNHAM HARBOR   1500            46  330/ 13/ 22   N/A
CALUMET HARBOR   1400            45  340/ 17/ 24 1006.8R
BURNS HARBOR     1405            44  360/ 21     1007.1R
MICHIGAN CITY    1400            43  330/ 27/ 33   N/A
$$

ABBREVIATIONS USED IN REMARKS
   TC - TEMPERATURE IN CELSIUS
  WCI - WIND CHILL INDEX
   HX - HEAT INDEX
  VSB - VISIBILITY
$$



USA.gov is the U.S. government's official web portal to all federal, state and local government web resources and services.